Flag for Greenland Weather past 2 weeks in Ittoqqortoormiit, Greenland

Now
42 °F

Sunny.


Feels Like: 42 °F
Forecast: 31 / 42 °F
Wind: No wind

Location: Scoresbysund

Current Time: Jul 29, 2015 at 7:25:24 AM

Latest Report: Jul 29, 2015 at 6:00 AM


Visibility: 31 mi

Pressure: 29.99 "Hg

Humidity: 73%

Dew point: 34 °F

Location of IttoqqortoormiitLocation

Historic Weather in Ittoqqortoormiit — Graph

°F

Ittoqqortoormiit temperature yesterday

Maximum temperature yesterday: 43 °F (at 10:00 PM)
Minimum temperature yesterday: 33 °F (at 5:00 AM)
Average temperature yesterday: 37 °F

Past Weeks' High & Low Weather Summary

 TemperatureHumidityPressure
High56 °F (Jul 17, 3:00 PM)100% (Jul 15, 3:00 AM)30.25 "Hg (Jul 15, 3:00 AM)
Low33 °F (Jul 26, 6:00 AM)44% (Jul 17, 3:00 PM)29.97 "Hg (Jul 27, 5:00 AM)
Average41 °F77%30.07 "Hg
* Reported Jul 14 6:00 AM — Jul 29 6:00 AM, Ittoqqortoormiit, Weather by CustomWeather, © 2015

Note: Actual official high and low records may vary slightly from our data, if they occured in-between our weather recording intervals... More about our weather records

Advertising

Ittoqqortoormiit weather history for previous 24 hours

 ConditionsComfort  
Time TempWeatherWind HumidityBarometerVisibility
6:00 AM
Wed, Jul 29
42 °FSunny.No wind73%29.99 "Hg31 mi
4:00 AM38 °FSunny.1 mph82%29.99 "Hg31 mi
2:00 AM41 °FScattered clouds.1 mph74%29.99 "Hg31 mi
1:00 AM40 °FPassing clouds.1 mph79%29.99 "Hg31 mi
12:00 AM39 °FSunny.1 mph83%29.99 "Hg31 mi
11:00 PM
Tue, Jul 28
40 °FSunny.1 mph78%29.99 "Hg31 mi
10:00 PM43 °FSunny.1 mph73%29.98 "Hg31 mi
8:00 PM41 °FSunny.3 mph78%29.99 "Hg31 mi
7:00 PM42 °FSunny.3 mph76%29.98 "Hg31 mi
6:00 PM42 °FSunny.3 mph75%29.99 "Hg28 mi
5:00 PM41 °FSunny.3 mph76%29.99 "Hg28 mi
4:00 PM40 °FSunny.3 mph78%29.99 "Hg31 mi
3:00 PM38 °FSunny.5 mph82%30.00 "Hg28 mi
2:00 PM38 °FSunny.5 mph83%30.00 "Hg25 mi
1:00 PM38 °FSunny.3 mph80%30.00 "Hg28 mi
12:00 PM36 °FSunny.3 mph88%30.00 "Hg31 mi
11:00 AM38 °FSunny.2 mph79%29.99 "Hg25 mi
10:00 AM37 °FPassing clouds.3 mph82%30.00 "Hg31 mi
9:00 AM36 °FChilly.2 mph88%30.00 "Hg31 mi
8:00 AM35 °FOvercast.2 mph89%30.00 "Hg31 mi
7:00 AM33 °FOvercast.2 mph95%29.99 "Hg31 mi
Weather by CustomWeather, © 2015

See weather overviewHow to use our weather pages